Location: Gu�tanj
(46.5431°N, 14.9692°E)
Time: 14:22:04
(UTC+00:00)

Cosmos 2219 Rocket - Pass Details

Date: 03 March 2021
Orbit: 826 x 848 km, 71.0° (Epoch: 19 April)

Event Time Altitude Azimuth Distance (km) Brightness Sun altitude
Rises 17:41:27 0° 158° (SSE) 3,352 5.1 -9.8°
Reaches altitude 10° 17:44:39 10° 139° (SE) 2,427 4.2 -10.4°
Maximum altitude 17:48:12 18° 99° (E) 1,954 3.5 -11.0°
Drops below altitude 10° 17:51:46 10° 59° (ENE) 2,445 4.1 -11.6°
Enters shadow 17:53:04 - 50° (NE) 2,795 4.5 -11.8°
Exits shadow 17:54:52 - 41° (NE) 3,353 5.0 -12.1°
Sets 17:54:59 0° 41° (NE) 3,388 5.0 -12.1°
